Harrisburg, PA

11:55 PM EDT on October 19, 2017 (GMT -0400)
Capital City

Weather History for KCXY - November, 2012

Change the Weather History Date:

Friday, November 2, 2012

  Actual Average Record
Temperature  
Mean Temperature 42 °F -  
Max Temperature 50 °F 56 °F 82 °F (1971)
Min Temperature 37 °F 38 °F 27 °F (1930)
Degree Days  
Heating Degree Days 22    
Moisture  
Dew Point 33 °F    
Average Humidity 64    
Maximum Humidity 86    
Minimum Humidity 50    
Precipitation  
Precipitation 0.00 in - - ()
Sea Level Pressure  
Sea Level Pressure 29.77 in    
Wind  
Wind Speed 8 mph (West)    
Max Wind Speed 21 mph    
Max Gust Speed 32 mph    
Visibility 10 miles    
Events      
Averages and records for this station are not official NWS values.
T = Trace of Precipitation, MM = Missing Value Source: NWS Daily Summary

Daily Weather History Graph

Daily Weather History Graph

Search for Another Location

Airport or City:

Trip Planner

Search our weather history database for the weather conditions in past years. The results will help you decide how hot, cold, wet, or windy it might be!

Date:

Astronomy

Nov. 02, 2012 Rise Set
Actual Time 7:38 AM EDT 6:02 PM EDT
Civil Twilight 7:10 AM EDT 6:31 PM EDT
Nautical Twilight 6:38 AM EDT 7:03 PM EDT
Astronomical Twilight 6:06 AM EDT 7:34 PM EDT
Moon 8:48 PM EDT (11/2) 10:57 AM EDT (11/2)
Length of Visible Light 11h 20m
Length of Day
10h 24m
Waning Gibbous, 87% of the Moon is Illuminated
Nov 2
Waning Gibbous
Nov 6
Last Quarter
Nov 13
New
Nov 20
First Quarter
Nov 28
Full

Hourly Weather History & Observations

Time (EDT) Temp. Windchill Dew Point Humidity Pressure Visibility Wind Dir Wind Speed Gust Speed Precip Events Conditions
12:56 AM 46.0 °F 42.5 °F 36.0 °F 68% 29.71 in 10.0 mi West 6.9 mph - N/A   Overcast
1:56 AM 45.0 °F 40.6 °F 34.0 °F 65% 29.72 in 10.0 mi West 8.1 mph - N/A   Overcast
2:56 AM 42.1 °F 38.4 °F 32.0 °F 67% 29.73 in 10.0 mi West 5.8 mph - N/A   Partly Cloudy
3:56 AM 41.0 °F 39.0 °F 30.9 °F 67% 29.72 in 10.0 mi WSW 3.5 mph - N/A   Clear
4:56 AM 39.0 °F 36.8 °F 32.0 °F 76% 29.72 in 10.0 mi West 3.5 mph - N/A   Partly Cloudy
5:56 AM 37.9 °F - 34.0 °F 86% 29.71 in 10.0 mi Calm Calm - N/A   Clear
6:56 AM 39.0 °F - 33.1 °F 79% 29.71 in 10.0 mi Calm Calm - N/A   Clear
7:56 AM 41.0 °F 38.0 °F 34.0 °F 76% 29.73 in 10.0 mi West 4.6 mph - N/A   Mostly Cloudy
8:56 AM 43.0 °F 38.8 °F 34.0 °F 71% 29.74 in 10.0 mi West 6.9 mph - N/A   Overcast
9:56 AM 44.1 °F 40.1 °F 35.1 °F 71% 29.75 in 10.0 mi West 6.9 mph - N/A   Overcast
10:56 AM 45.0 °F 40.6 °F 36.0 °F 71% 29.75 in 10.0 mi West 8.1 mph - N/A   Overcast
11:56 AM 48.9 °F - 35.1 °F 59% 29.74 in 10.0 mi West 8.1 mph 18.4 mph N/A   Mostly Cloudy
12:56 PM 48.0 °F - 32.0 °F 54% 29.74 in 10.0 mi WNW 16.1 mph 24.2 mph N/A   Overcast
1:56 PM 48.9 °F - 32.0 °F 52% 29.73 in 10.0 mi West 17.3 mph 25.3 mph N/A   Overcast
2:56 PM 48.9 °F - 32.0 °F 52% 29.73 in 10.0 mi WNW 11.5 mph 20.7 mph N/A   Overcast
3:56 PM 48.9 °F - 30.9 °F 50% 29.75 in 10.0 mi West 12.7 mph 32.2 mph N/A   Overcast
4:56 PM 48.0 °F - 32.0 °F 54% 29.78 in 10.0 mi West 20.7 mph 28.8 mph N/A   Overcast
5:56 PM 46.9 °F - 32.0 °F 56% 29.80 in 10.0 mi WNW 13.8 mph 21.9 mph N/A   Overcast
6:56 PM 46.0 °F 39.9 °F 32.0 °F 58% 29.83 in 10.0 mi WNW 13.8 mph 21.9 mph N/A   Overcast
7:56 PM 45.0 °F 38.5 °F 32.0 °F 60% 29.86 in 10.0 mi WNW 13.8 mph 19.6 mph N/A   Overcast
8:56 PM 45.0 °F 38.2 °F 32.0 °F 60% 29.87 in 10.0 mi WNW 15.0 mph 19.6 mph N/A   Overcast
9:56 PM 45.0 °F 39.3 °F 32.0 °F 60% 29.88 in 10.0 mi WNW 11.5 mph 18.4 mph N/A   Overcast
10:56 PM 44.1 °F 38.1 °F 32.0 °F 63% 29.88 in 10.0 mi WNW 11.5 mph 25.3 mph N/A   Overcast
11:56 PM 44.1 °F 38.6 °F 30.9 °F 60% 29.88 in 10.0 mi WNW 10.4 mph - N/A   Overcast